Date String (YYYY-MM-DD hh:mm:ss) UTC,Instrument flags,Ambient pressure (hPa),Sample flow (lpm),Bypass flow (lpm),Sample temperature (°C),Ambient temperature (°C),ASC tube jacket temperature (°C),LED temperature (°C),Box temperature (°C),Sample RH (%),Span deviation,Mass concentration (μg/m³),Mass concentration (μg/m³),Mass concentration (μg/m³)
DateTimeUTC,F1_M11,P_M11,Q1_M11,Q2_M11,T1_M11,T2_M11,T3_M11,T4_M11,T5_M11,U1_M11,ZSPAN_M11,X0_M11,X2_M11,X1_M11
2022-08-11 14:00:00,,0831.9,5.00,0.00,29.7,28.0,00.0,38.5,31.5,26.6,0000.0,0016.13,0006.72,0005.27
2022-08-11 14:01:00,,0831.9,5.00,0.00,29.7,28.1,00.0,38.5,31.5,26.3,0000.0,0016.43,0006.67,0005.26
2022-08-11 14:02:00,,0831.9,4.99,0.00,29.7,28.2,00.0,38.5,31.6,26.9,0000.0,0016.08,0006.64,0005.26
2022-08-11 14:03:00,,0832.0,5.00,0.00,29.7,28.3,00.0,38.5,31.6,26.9,0000.0,0016.36,0006.64,0005.24
2022-08-11 14:04:00,,0832.0,5.01,0.00,29.7,28.4,00.0,38.5,31.6,27.2,0000.0,0016.25,0006.58,0005.22
2022-08-11 14:05:00,,0832.1,5.01,0.00,29.7,28.5,00.0,38.5,31.7,27.8,0000.0,0015.15,0006.59,0005.23
2022-08-11 14:06:00,,0832.1,5.00,0.00,29.8,28.6,00.0,38.6,31.7,28.2,0000.0,0014.88,0006.59,0005.22
2022-08-11 14:07:00,,0832.1,4.99,0.00,29.8,28.6,00.0,38.6,31.7,27.9,0000.0,0015.61,0006.56,0005.22
2022-08-11 14:08:00,,0832.1,5.00,0.00,29.8,28.7,00.0,38.6,31.8,27.9,0000.0,0016.16,0006.58,0005.21
2022-08-11 14:09:00,,0832.1,5.00,0.00,29.8,28.7,00.0,38.6,31.8,28.6,0000.0,0016.42,0006.59,0005.23
2022-08-11 14:10:00,,0832.1,5.00,0.00,29.8,28.8,00.0,38.6,31.7,28.6,0000.0,0016.23,0006.60,0005.24
2022-08-11 14:11:00,,0832.1,5.01,0.00,29.9,28.9,00.0,38.6,31.8,28.7,0000.0,0015.93,0006.60,0005.23
2022-08-11 14:12:00,,0832.1,5.00,0.00,29.9,28.9,00.0,38.6,31.8,28.1,0000.0,0015.57,0006.68,0005.25
2022-08-11 14:13:00,,0832.1,5.00,0.00,29.9,28.9,00.0,38.6,31.9,28.4,0000.0,0015.53,0006.73,0005.26
2022-08-11 14:14:00,,0832.1,4.99,0.00,29.9,28.5,00.0,38.6,31.8,28.8,0000.0,0015.36,0006.73,0005.26
2022-08-11 14:15:00,,0832.2,5.00,0.00,29.9,27.8,00.0,38.6,31.6,29.2,0000.0,0015.22,0006.75,0005.28
2022-08-11 14:16:00,,0832.1,5.00,0.00,29.8,27.5,00.0,38.6,31.5,29.2,0000.0,0015.36,0006.75,0005.29
2022-08-11 14:17:00,,0832.1,5.00,0.00,29.8,27.5,00.0,38.5,31.4,29.3,0000.0,0016.03,0006.74,0005.30
2022-08-11 14:18:00,,0832.2,4.99,0.00,29.7,27.6,00.0,38.5,31.4,29.4,0000.0,0015.49,0006.72,0005.32
2022-08-11 14:19:00,,0832.2,5.01,0.00,29.7,27.7,00.0,38.5,31.4,29.8,0000.0,0015.83,0006.73,0005.34
2022-08-11 14:20:00,,0832.2,5.00,0.00,29.7,27.9,00.0,38.5,31.5,29.9,0000.0,0016.30,0006.77,0005.35
2022-08-11 14:21:00,,0832.2,5.01,0.00,29.7,28.0,00.0,38.5,31.5,29.4,0000.0,0017.09,0006.85,0005.37
2022-08-11 14:22:00,,0832.2,4.99,0.00,29.7,28.1,00.0,38.5,31.5,30.2,0000.0,0016.82,0006.95,0005.41
2022-08-11 14:23:00,,0832.3,4.99,0.00,29.7,28.3,00.0,38.5,31.6,30.3,0000.0,0017.18,0006.93,0005.43
2022-08-11 14:24:00,,0832.3,5.01,0.00,29.7,28.4,00.0,38.5,31.6,30.5,0000.0,0018.14,0006.88,0005.43
2022-08-11 14:25:00,,0832.3,5.00,0.00,29.7,28.5,00.0,38.5,31.6,30.8,0000.0,0018.42,0006.93,0005.46
2022-08-11 14:26:00,,0832.3,5.01,0.00,29.7,28.6,00.0,38.5,31.6,30.8,0000.0,0018.82,0007.02,0005.47
2022-08-11 14:27:00,,0832.2,4.99,0.00,29.8,28.6,00.0,38.5,31.7,30.3,0000.0,0018.47,0007.04,0005.48
2022-08-11 14:28:00,,0832.3,5.01,0.00,29.8,28.7,00.0,38.5,31.7,30.2,0000.0,0017.74,0007.06,0005.50
2022-08-11 14:29:00,,0832.2,5.00,0.00,29.8,28.8,00.0,38.6,31.8,29.7,0000.0,0018.32,0007.08,0005.51
2022-08-11 14:30:00,,0832.3,5.00,0.00,29.8,28.8,00.0,38.6,31.8,29.9,0000.0,0017.86,0007.10,0005.52
2022-08-11 14:31:00,,0832.2,4.99,0.00,29.9,28.9,00.0,38.6,31.8,30.1,0000.0,0018.24,0007.11,0005.53
2022-08-11 14:32:00,,0832.2,5.01,0.00,29.9,28.6,00.0,38.6,31.7,30.0,0000.0,0017.58,0007.10,0005.54
2022-08-11 14:33:00,,0832.2,4.99,0.00,29.8,27.9,00.0,38.5,31.6,30.1,0000.0,0017.76,0007.06,0005.55
2022-08-11 14:34:00,,0832.2,5.01,0.00,29.8,27.5,00.0,38.5,31.5,30.1,0000.0,0018.42,0007.11,0005.56
2022-08-11 14:35:00,,0832.2,5.00,0.00,29.7,27.5,00.0,38.5,31.4,30.6,0000.0,0017.85,0007.14,0005.57
2022-08-11 14:36:00,,0832.2,4.99,0.00,29.6,27.6,00.0,38.5,31.4,30.9,0000.0,0017.85,0007.13,0005.57
2022-08-11 14:37:00,,0832.3,5.00,0.00,29.6,27.7,00.0,38.5,31.4,30.6,0000.0,0017.63,0007.12,0005.56
2022-08-11 14:38:00,,0832.3,5.00,0.00,29.6,27.8,00.0,38.5,31.4,30.5,0000.0,0017.45,0007.09,0005.55
2022-08-11 14:39:00,,0832.3,5.00,0.00,29.6,28.0,00.0,38.5,31.5,30.6,0000.0,0017.61,0007.11,0005.57
2022-08-11 14:40:00,,0832.3,5.00,0.00,29.6,28.1,00.0,38.5,31.5,30.5,0000.0,0016.80,0007.13,0005.55
2022-08-11 14:41:00,,0832.4,5.00,0.00,29.6,28.3,00.0,38.5,31.5,30.7,0000.0,0016.74,0007.14,0005.55
2022-08-11 14:42:00,,0832.4,5.00,0.00,29.7,28.4,00.0,38.5,31.6,30.3,0000.0,0017.29,0007.22,0005.56
2022-08-11 14:43:00,,0832.3,5.00,0.00,29.7,28.5,00.0,38.5,31.6,30.1,0000.0,0017.12,0007.19,0005.56
2022-08-11 14:44:00,,0832.3,4.99,0.00,29.7,28.6,00.0,38.5,31.7,30.1,0000.0,0016.88,0007.17,0005.55
2022-08-11 14:45:00,,0832.3,4.99,0.00,29.7,28.6,00.0,38.5,31.7,29.9,0000.0,0016.23,0007.20,0005.55
2022-08-11 14:46:00,,0832.4,5.00,0.00,29.8,28.7,00.0,38.5,31.7,29.9,0000.0,0016.05,0007.24,0005.56
2022-08-11 14:47:00,,0832.3,4.99,0.00,29.8,28.8,00.0,38.5,31.8,29.8,0000.0,0016.01,0007.25,0005.56
2022-08-11 14:48:00,,0832.4,5.01,0.00,29.8,28.5,00.0,38.5,31.7,29.5,0000.0,0016.56,0007.24,0005.58
2022-08-11 14:49:00,,0832.3,4.99,0.00,29.8,27.9,00.0,38.5,31.6,29.8,0000.0,0018.47,0007.24,0005.58
2022-08-11 14:50:00,,0832.3,5.00,0.00,29.7,27.6,00.0,38.5,31.5,30.0,0000.0,0018.48,0007.24,0005.58
2022-08-11 14:51:00,,0832.3,5.00,0.00,29.7,27.6,00.0,38.5,31.4,30.3,0000.0,0018.91,0007.26,0005.59
2022-08-11 14:52:00,,0832.3,4.99,0.00,29.6,27.6,00.0,38.4,31.4,30.4,0000.0,0019.52,0007.28,0005.60
2022-08-11 14:53:00,,0832.4,5.01,0.00,29.6,27.8,00.0,38.4,31.4,30.1,0000.0,0018.75,0007.26,0005.59
2022-08-11 14:54:00,,0832.4,5.00,0.00,29.6,27.9,00.0,38.4,31.4,29.9,0000.0,0018.69,0007.24,0005.56
2022-08-11 14:55:00,,0832.4,4.99,0.00,29.6,28.1,00.0,38.4,31.5,30.2,0000.0,0018.79,0007.23,0005.55
2022-08-11 14:56:00,,0832.4,4.98,0.00,29.6,28.2,00.0,38.4,31.5,29.9,0000.0,0018.57,0007.15,0005.52
2022-08-11 14:57:00,,0832.4,5.00,0.00,29.6,28.3,00.0,38.5,31.5,29.8,0000.0,0018.56,0007.13,0005.51
2022-08-11 14:58:00,,0832.4,5.02,0.00,29.7,28.4,00.0,38.5,31.6,29.8,0000.0,0018.91,0007.10,0005.48
2022-08-11 14:59:00,,0832.4,5.00,0.00,29.7,28.5,00.0,38.5,31.7,29.9,0000.0,0018.18,0007.03,0005.45
